Regional Weather Roundup
Issued by NWS Jackson, KY

Home | Current Version | Previous Version | Graphics & Text | Print | Product List | Glossary On
Versions: 1 2 3 4 5 6 7 8 9 10 11 12 13 14 15 16 17 18 19 20 21 22 23 24 25 26 27 28 29 30 31 32 33 34 35 36 37 38 39 40 41 42 43 44 45 46 47 48 49 50
000
ASUS43 KJKL 141010
RWRJKL

EAST KENTUCKY HOURLY WEATHER ROUNDUP
NATIONAL WEATHER SERVICE JACKSON KY
500 AM EST THU DEC 14 2017

NOTE: "FAIR" INDICATES FEW OR NO CLOUDS BELOW 12,000 FEET WITH
NO SIGNIFICANT WEATHER AND/OR OBSTRUCTIONS TO VISIBILITY.

* THESE REPORTS ARE NOT UNDER NWS QUALITY CONTROL AND MAY NOT
  REPORT WEATHER SUCH AS PRECIPITATION AND FOG.

KYZ079-080-083-085-087-088-110-112-115-119-120-141100
...EASTERN KENTUCKY...

CITY           SKY/WX    TMP DP  RH WIND       PRES   REMARKS
JACKSON        CLOUDY    39  27  62 W13G28    29.76R WCI  31
LONDON         CLOUDY    39  28  64 NW16G22   29.80R WCI  30
SOMERSET*      CLOUDY    37  28  70 N9        29.84R WCI  31
MONTICELLO*    CLOUDY    37  29  72 W13       29.85R WCI  29
WILLIAMSBURG*  PTSUNNY   39  28  65 W13G22    29.81R WCI  32
MIDDLESBORO*   MOCLDY    41  26  55 W5        29.80R
HARLAN APT*    CLOUDY    41  28  60 SW15G22   29.77R
PIKE CO APT*   CLOUDY    40  29  66 NW9       29.72R WCI  34
BIG SANDY APT* CLOUDY    40  28  63 NW9G20    29.74R WCI  34
MOREHEAD APT*  CLOUDY    36  23  60 NW21      29.79R WCI  24
$$

KYZ035-036-041-042-044-050-067-078-099-141100
...CENTRAL KENTUCKY...

CITY           SKY/WX    TMP DP  RH WIND       PRES   REMARKS
MT STERLING*   CLOUDY    36  28  75 NW10      29.81R WCI  28
FLEMING/MASON* CLOUDY    32  20  62 NW15G21   29.81R WCI  22
DANVILLE*      CLOUDY    36  27  69 NW10      29.83R WCI  28
LEXINGTON      CLOUDY    36  24  62 NW13G23   29.81R WCI  27
FRANKFORT      CLOUDY    36  22  56 NW8G17    29.82R WCI  30
LOUISVILLE     CLOUDY    35  21  56 NW10G24   29.87R WCI  27
LEBANON*       CLOUDY    36  25  64 W12       29.84R WCI  27
GLASGOW*       CLOUDY    37  27  68 NW9G17    29.86R WCI  30
BOWLING GREEN  CLOUDY    38  28  67 NW3       29.88R
$$

KYZ091>093-OHZ055-061-077-WVZ005-015-034-035-042-141100
...SOUTHERN OHIO/WEST VIRGINIA...

CITY           SKY/WX    TMP DP  RH WIND       PRES   REMARKS
COVINGTON      CLOUDY    31  22  69 NW13      29.80R WCI  21
COLUMBUS       CLOUDY    26  21  81 NW16G25   29.75R WCI  14
DAYTON         CLOUDY    23  18  81 NW14      29.81R WCI  11
WILMINGTON     CLOUDY    29  21  72 NW17G25   29.77R WCI  17
HUNTINGTON     CLOUDY    39  25  57 NW14G26   29.74R WCI  31
CHARLESTON     FLURRIES  39  26  59 W14G26    29.69R WCI  31
PINEVILLE*     CLOUDY    42  26  54 MISG      29.70R
BECKLEY        CLOUDY    38  24  57 W14G25    29.59R WCI  30
BLUEFIELD      CLOUDY    33  18  53 W17G28    29.63R WCI  22
LOGAN CO APT*  CLOUDY    41  27  56 W18G31    29.68R
$$

VAZ002-007-008-TNZ017-027-036-066-071-141100
...SOUTHWEST VIRGINIA/EAST TENNESSEE...

CITY           SKY/WX    TMP DP  RH WIND       PRES   REMARKS
WISE*          CLOUDY    36  27  69 W14G23    29.71R WCI  27
JONESVILLE*      N/A     32  21  64 W3        29.80R
ABINGDON*      PTCLDY    39  22  51 W8        29.73R WCI  33
BRISTOL        CLEAR     41  23  48 SW17      29.75R
MORRISTOWN*    PTSUNNY   39  23  52 W13       29.79R WCI  32
SEVIERVILLE*   CLOUDY    45  23  42 SW7G14    29.80S
KNOXVILLE      CLEAR     37  26  64 SW9       29.81S WCI  30
LAFOLLETTE*    MOSUNNY   43  25  49 CALM      29.84R
OAK RIDGE      CLEAR     29  22  75 CALM      29.84R
CROSSVILLE     CLEAR     33  22  63 SW3       29.81R
NASHVILLE      CLEAR     40  30  67 N13       29.88R WCI  32
$$

...KEY TO REMARKS...
VSB - VISIBILITY IN MILES
WCI - WIND CHILL INDEX
HX  - HEAT INDEX

$$



USA.gov is the U.S. government's official web portal to all federal, state and local government web resources and services.